XBDZI MMPB-MMVR

Flight info

Callsign XBDZI
Flight time 0h 35m
Altitude 21000
Route UKUNO1D UKUNO DCT TEVET TEVET1B
Aircraft SF50/L-BDGRSWY/LB2U2

Departure

Time 2026-05-07 14:54
Airport Hermanos Serdán International Airport (MMPB)

Arrival

Time 2026-05-07 15:29
Airport General Heriberto Jara International Airport (MMVR)
Time Latitude Longitude Altitude Speed Heading
2026-05-07 14:41 19.16622 -98.37485 7347 ft 0 kts 181°
2026-05-07 14:50 19.16599 -98.37496 7347 ft 9 kts 237°
2026-05-07 14:50 19.16552 -98.37509 7347 ft 10 kts 89°
2026-05-07 14:50 19.16550 -98.37458 7347 ft 3 kts 121°
2026-05-07 14:50 19.16517 -98.37455 7347 ft 7 kts 176°
2026-05-07 14:51 19.16453 -98.37440 7347 ft 11 kts 167°
2026-05-07 14:51 19.16359 -98.37434 7347 ft 15 kts 172°
2026-05-07 14:51 19.16298 -98.37345 7347 ft 17 kts 146°
2026-05-07 14:51 19.16194 -98.37277 7347 ft 14 kts 145°
2026-05-07 14:52 19.16168 -98.37261 7347 ft 0 kts 148°
2026-05-07 14:52 19.16143 -98.37244 7347 ft 13 kts 148°
2026-05-07 14:53 19.16107 -98.37173 7347 ft 11 kts 39°
2026-05-07 14:53 19.16272 -98.37168 7347 ft 48 kts 359°
2026-05-07 14:53 19.16781 -98.37190 7347 ft 97 kts 358°
2026-05-07 14:53 19.17565 -98.37210 7444 ft 124 kts 358°
2026-05-07 14:54 19.18473 -98.37169 7679 ft 138 kts
2026-05-07 14:54 19.19453 -98.37054 7970 ft 150 kts
2026-05-07 14:54 19.20534 -98.37116 8204 ft 159 kts 346°
2026-05-07 14:54 19.21695 -98.37327 8513 ft 183 kts 356°
2026-05-07 14:55 19.23000 -98.37426 8944 ft 188 kts 355°
2026-05-07 14:55 19.24309 -98.37514 9405 ft 189 kts 358°
2026-05-07 14:55 19.25635 -98.37566 9960 ft 191 kts 359°
2026-05-07 14:55 19.26952 -98.37384 10476 ft 193 kts 19°
2026-05-07 14:56 19.28120 -98.36693 10963 ft 194 kts 39°
2026-05-07 14:56 19.28873 -98.35511 11445 ft 196 kts 66°
2026-05-07 14:56 19.29362 -98.34177 11910 ft 198 kts 68°
2026-05-07 14:56 19.29890 -98.32818 12390 ft 200 kts 66°
2026-05-07 14:57 19.30471 -98.31476 12855 ft 202 kts 65°
2026-05-07 14:57 19.31062 -98.30124 13336 ft 203 kts 65°
2026-05-07 14:57 19.31652 -98.28755 13816 ft 205 kts 66°
2026-05-07 14:57 19.32247 -98.27371 14292 ft 207 kts 66°
2026-05-07 14:58 19.32841 -98.25973 14721 ft 209 kts 66°
2026-05-07 14:58 19.33431 -98.24593 14992 ft 206 kts 66°
2026-05-07 14:58 19.34054 -98.23179 15334 ft 213 kts 67°
2026-05-07 14:58 19.34669 -98.21757 15786 ft 213 kts 68°
2026-05-07 14:59 19.35281 -98.20326 16142 ft 214 kts 68°
2026-05-07 14:59 19.35894 -98.18886 16527 ft 215 kts 69°
2026-05-07 14:59 19.36519 -98.17436 16913 ft 217 kts 68°
2026-05-07 14:59 19.37161 -98.15983 17309 ft 218 kts 69°
2026-05-07 15:00 19.37787 -98.14510 17683 ft 219 kts 70°
2026-05-07 15:00 19.38412 -98.13030 18064 ft 221 kts 70°
2026-05-07 15:00 19.39061 -98.11547 18408 ft 223 kts 69°
2026-05-07 15:00 19.39708 -98.10053 18699 ft 224 kts 70°
2026-05-07 15:01 19.40349 -98.08546 19000 ft 225 kts 70°
2026-05-07 15:01 19.40989 -98.07052 19310 ft 226 kts 70°
2026-05-07 15:01 19.41642 -98.05528 19617 ft 228 kts 70°
2026-05-07 15:01 19.42309 -98.03974 19926 ft 229 kts 70°
2026-05-07 15:02 19.42955 -98.02445 20222 ft 230 kts 73°
2026-05-07 15:02 19.43282 -98.00810 20496 ft 226 kts 90°
2026-05-07 15:02 19.43195 -97.99159 20796 ft 225 kts 100°
2026-05-07 15:02 19.43020 -97.97503 21093 ft 227 kts 99°
2026-05-07 15:03 19.42862 -97.95789 21115 ft 241 kts 99°
2026-05-07 15:03 19.42692 -97.93971 21130 ft 253 kts 99°
2026-05-07 15:03 19.42504 -97.92079 21129 ft 263 kts 99°
2026-05-07 15:03 19.42314 -97.90118 21122 ft 270 kts 99°
2026-05-07 15:04 19.42119 -97.88118 21125 ft 276 kts 99°
2026-05-07 15:04 19.41923 -97.86077 21125 ft 280 kts 99°
2026-05-07 15:04 19.41727 -97.84037 21122 ft 283 kts 98°
2026-05-07 15:04 19.41525 -97.81949 21126 ft 285 kts 98°
2026-05-07 15:05 19.41320 -97.79854 21127 ft 287 kts 98°
2026-05-07 15:05 19.41115 -97.77742 21124 ft 289 kts 98°
2026-05-07 15:05 19.40908 -97.75624 21128 ft 290 kts 98°
2026-05-07 15:05 19.40700 -97.73499 21128 ft 290 kts 98°
2026-05-07 15:06 19.40490 -97.71365 21125 ft 291 kts 98°
2026-05-07 15:06 19.40278 -97.69224 21125 ft 292 kts 98°
2026-05-07 15:06 19.40070 -97.67082 21126 ft 293 kts 98°
2026-05-07 15:06 19.39935 -97.65662 21125 ft 292 kts 98°
2026-05-07 15:07 19.39728 -97.63520 21124 ft 293 kts 98°
2026-05-07 15:07 19.39515 -97.61373 21123 ft 293 kts 98°
2026-05-07 15:07 19.39303 -97.59232 21121 ft 292 kts 98°
2026-05-07 15:07 19.39093 -97.57089 21121 ft 293 kts 98°
2026-05-07 15:08 19.38881 -97.54937 21122 ft 293 kts 98°
2026-05-07 15:08 19.38669 -97.52790 21118 ft 293 kts 98°
2026-05-07 15:08 19.38458 -97.50642 21120 ft 293 kts 98°
2026-05-07 15:08 19.38246 -97.48495 21120 ft 293 kts 98°
2026-05-07 15:09 19.38035 -97.46346 21120 ft 293 kts 98°
2026-05-07 15:09 19.37820 -97.44203 21113 ft 293 kts 98°
2026-05-07 15:09 19.37610 -97.42087 21112 ft 293 kts 98°
2026-05-07 15:09 19.37398 -97.39938 21111 ft 293 kts 98°
2026-05-07 15:10 19.37185 -97.37793 21107 ft 293 kts 98°
2026-05-07 15:10 19.36971 -97.35646 21100 ft 293 kts 98°
2026-05-07 15:10 19.36756 -97.33497 21097 ft 293 kts 98°
2026-05-07 15:10 19.36541 -97.31350 21093 ft 293 kts 98°
2026-05-07 15:11 19.36327 -97.29201 21091 ft 293 kts 98°
2026-05-07 15:11 19.36112 -97.27057 21087 ft 293 kts 98°
2026-05-07 15:11 19.35893 -97.24913 21084 ft 293 kts 99°
2026-05-07 15:11 19.35683 -97.22794 21085 ft 293 kts 98°
2026-05-07 15:12 19.35467 -97.20643 21072 ft 293 kts 99°
2026-05-07 15:12 19.35250 -97.18496 21070 ft 294 kts 99°
2026-05-07 15:12 19.35033 -97.16340 21064 ft 294 kts 98°
2026-05-07 15:12 19.34818 -97.14183 21061 ft 295 kts 99°
2026-05-07 15:13 19.34599 -97.12016 21049 ft 294 kts 98°
2026-05-07 15:13 19.34379 -97.09862 21043 ft 294 kts 99°
2026-05-07 15:13 19.34161 -97.07708 21036 ft 294 kts 98°
2026-05-07 15:13 19.33952 -97.05558 21029 ft 294 kts 98°
2026-05-07 15:14 19.33828 -97.03399 21026 ft 294 kts 93°
2026-05-07 15:14 19.33819 -97.01231 20979 ft 295 kts 93°
2026-05-07 15:14 19.33800 -96.99023 20305 ft 305 kts 93°
2026-05-07 15:14 19.33778 -96.96763 19633 ft 308 kts 93°
2026-05-07 15:15 19.33762 -96.94496 18971 ft 308 kts 93°
2026-05-07 15:15 19.33742 -96.92234 18333 ft 307 kts 93°
2026-05-07 15:15 19.33720 -96.89971 17597 ft 307 kts 92°
2026-05-07 15:15 19.33699 -96.87710 16870 ft 307 kts 92°
2026-05-07 15:16 19.33678 -96.85441 16156 ft 309 kts 92°
2026-05-07 15:16 19.33661 -96.83167 15468 ft 310 kts 92°
2026-05-07 15:16 19.33640 -96.80881 14771 ft 311 kts 91°
2026-05-07 15:16 19.33617 -96.78628 14107 ft 309 kts 91°
2026-05-07 15:17 19.33597 -96.76372 13712 ft 304 kts 91°
2026-05-07 15:17 19.33579 -96.74132 13285 ft 304 kts 91°
2026-05-07 15:17 19.33553 -96.71894 12879 ft 304 kts 91°
2026-05-07 15:17 19.33533 -96.69660 12473 ft 303 kts 90°
2026-05-07 15:18 19.33512 -96.67430 12073 ft 302 kts 90°
2026-05-07 15:18 19.33487 -96.65210 11672 ft 301 kts 90°
2026-05-07 15:18 19.33467 -96.62999 11270 ft 300 kts 90°
2026-05-07 15:18 19.33447 -96.60796 10879 ft 299 kts 90°
2026-05-07 15:19 19.33420 -96.58597 10490 ft 299 kts 90°
2026-05-07 15:19 19.33398 -96.56393 10097 ft 299 kts 89°
2026-05-07 15:19 19.33377 -96.54190 9697 ft 298 kts 90°
2026-05-07 15:19 19.33338 -96.52003 9279 ft 296 kts 90°
2026-05-07 15:20 19.33317 -96.50619 9038 ft 295 kts 90°
2026-05-07 15:20 19.33293 -96.48916 8720 ft 292 kts 89°
2026-05-07 15:20 19.33297 -96.46771 8361 ft 291 kts 89°
2026-05-07 15:20 19.33272 -96.44662 7961 ft 292 kts 90°
2026-05-07 15:21 19.33234 -96.42518 7578 ft 290 kts 90°
2026-05-07 15:21 19.33209 -96.40395 7196 ft 287 kts 89°
2026-05-07 15:21 19.33191 -96.38288 6829 ft 285 kts 89°
2026-05-07 15:21 19.33184 -96.36187 6593 ft 284 kts 89°
2026-05-07 15:22 19.33155 -96.34155 6177 ft 265 kts 89°
2026-05-07 15:22 19.33127 -96.32258 5831 ft 251 kts 89°
2026-05-07 15:22 19.33102 -96.30452 5551 ft 240 kts 90°
2026-05-07 15:22 19.33072 -96.28689 5272 ft 237 kts 89°
2026-05-07 15:23 19.33053 -96.26955 4989 ft 234 kts 89°
2026-05-07 15:23 19.33029 -96.25238 4692 ft 233 kts 89°
2026-05-07 15:23 19.32961 -96.23554 4390 ft 231 kts 97°
2026-05-07 15:23 19.32635 -96.21891 4094 ft 230 kts 101°
2026-05-07 15:24 19.32315 -96.20238 3796 ft 228 kts 101°
2026-05-07 15:24 19.31743 -96.18688 3494 ft 225 kts 120°
2026-05-07 15:24 19.30783 -96.17475 3209 ft 206 kts 137°
2026-05-07 15:24 19.29623 -96.16661 2939 ft 196 kts 153°
2026-05-07 15:25 19.28347 -96.16226 2686 ft 192 kts 169°
2026-05-07 15:25 19.27021 -96.16167 2434 ft 190 kts 184°
2026-05-07 15:25 19.25723 -96.16424 2174 ft 189 kts 191°
2026-05-07 15:25 19.24465 -96.16686 1935 ft 176 kts 190°
2026-05-07 15:26 19.23309 -96.16920 1700 ft 163 kts 189°
2026-05-07 15:26 19.22233 -96.17141 1506 ft 151 kts 191°
2026-05-07 15:26 19.21215 -96.17359 1315 ft 148 kts 192°
2026-05-07 15:26 19.20281 -96.17560 1137 ft 125 kts 190°
2026-05-07 15:27 19.19486 -96.17723 978 ft 109 kts 191°
2026-05-07 15:27 19.18781 -96.17863 858 ft 102 kts 191°
2026-05-07 15:27 19.18099 -96.18003 736 ft 100 kts 191°
2026-05-07 15:27 19.17424 -96.18147 625 ft 98 kts 190°
2026-05-07 15:28 19.16715 -96.18286 469 ft 106 kts 189°
2026-05-07 15:28 19.15985 -96.18431 357 ft 107 kts 191°
2026-05-07 15:28 19.15270 -96.18593 208 ft 103 kts 191°
2026-05-07 15:28 19.14609 -96.18731 110 ft 90 kts 191°
2026-05-07 15:29 19.14082 -96.18838 110 ft 54 kts 191°
2026-05-07 15:29 19.13993 -96.18821 110 ft 5 kts 47°
2026-05-07 15:29 19.14017 -96.18799 110 ft 6 kts 40°
2026-05-07 15:29 19.14060 -96.18759 110 ft 10 kts 42°
2026-05-07 15:30 19.14124 -96.18700 110 ft 14 kts 40°
2026-05-07 15:30 19.14205 -96.18621 110 ft 18 kts 57°
2026-05-07 15:30 19.14205 -96.18547 112 ft 9 kts 100°
2026-05-07 15:30 19.14151 -96.18530 112 ft 10 kts 187°
2026-05-07 15:31 19.14097 -96.18511 113 ft 9 kts 102°
2026-05-07 15:31 19.14071 -96.18485 113 ft 7 kts 191°
2026-05-07 15:31 19.14061 -96.18488 113 ft 0 kts 192°